"TOA5","Farson_5S","CR1000","25731","CR1000.Std.16","CPU:Farson16.CR1","31451","Table201"
"TIMESTAMP","RECORD","Ta_C_Max","Ta_C_Min","WSPD_1minArray_Max","WSPD_1minArray_TMx","VP_Avg","VP_DEF_Avg","Rain_Tot","WSPD_5sec_Max","WSPD_5sec_TMx","BattVolts_Min"
"TS","RN","","","","","","","","","",""
"","","Max","Min","Max","TMx","Avg","Avg","Tot","Max","TMx","Min"
"2013-10-11 00:00:00",1163,9.54,3.197,7.286,"2013-10-10 19:25:05",0.75,0.187,3.556,7.952,"2013-10-10 01:02:00",12.67
"2013-10-12 00:00:00",1164,9.53,-4.418,8.38,"2013-10-11 14:34:05",0.564,0.229,0,10.35,"2013-10-11 14:24:35",12.6
"2013-10-13 00:00:00",1165,13.11,-8.47,4.023,"2013-10-12 15:55:05",0.45,0.345,0,4.596,"2013-10-12 15:54:15",12.56
"2013-10-14 00:00:00",1166,13.92,-0.717,9.18,"2013-10-13 17:11:05",0.621,0.346,2.54,10.83,"2013-10-13 17:09:40",12.62
"2013-10-15 00:00:00",1167,2.867,-2.935,6.407,"2013-10-14 13:34:05",0.614,0.021,5.842,7.312,"2013-10-14 14:01:40",12.64
"2013-10-16 00:00:00",1168,6.029,-6.644,2.745,"2013-10-15 16:32:05",0.419,0.118,6.096,2.998,"2013-10-15 15:39:25",12.58
"2013-10-17 00:00:00",1169,8.18,-10.76,5.142,"2013-10-16 15:37:05",0.456,0.15,0.508,7.792,"2013-10-16 14:06:35",12.54
"2013-10-18 00:00:00",1170,8.39,-5.7,7.352,"2013-10-17 16:55:05",0.458,0.205,0,8.91,"2013-10-17 16:47:05",12.58
"2013-10-19 00:00:00",1171,7.838,-7.862,6.607,"2013-10-18 11:33:05",0.371,0.264,0.254,8.75,"2013-10-18 13:42:20",12.55
"2013-10-20 00:00:00",1172,15.07,-7.727,8.08,"2013-10-19 14:35:05",0.423,0.393,0,10.83,"2013-10-19 14:55:15",12.56
"2013-10-21 00:00:00",1173,11.96,-6.712,5.448,"2013-10-20 10:52:05",0.485,0.275,0,6.673,"2013-10-20 10:51:20",12.6
"2013-10-22 00:00:00",1174,13.51,-10.63,6.034,"2013-10-21 13:23:05",0.411,0.352,0,7.312,"2013-10-21 12:41:20",12.53
"2013-10-23 00:00:00",1175,16.95,-5.9,5.102,"2013-10-22 14:37:05",0.456,0.486,0,6.194,"2013-10-22 14:36:20",12.57
"2013-10-24 00:00:00",1176,18.65,-8.61,3.93,"2013-10-23 13:55:05",0.423,0.496,0,4.436,"2013-10-23 12:53:30",12.54
"2013-10-25 00:00:00",1177,18.24,-8.47,3.57,"2013-10-24 15:00:05",0.404,0.507,0,4.276,"2013-10-24 14:59:20",12.54
"2013-10-26 00:00:00",1178,17.36,-8.8,4.263,"2013-10-25 15:17:05",0.4,0.498,0.254,5.395,"2013-10-25 14:19:45",12.53
"2013-10-27 00:00:00",1179,15.88,-8.74,4.236,"2013-10-26 12:38:05",0.407,0.48,0,6.034,"2013-10-26 14:19:45",12.54
"2013-10-28 00:00:00",1180,16.15,-9.28,8.35,"2013-10-27 15:22:05",0.367,0.578,0,10.03,"2013-10-27 15:23:55",12.54
"2013-10-29 00:00:00",1181,8.99,-2.61,11.44,"2013-10-28 11:01:05",0.52,0.295,0,13.86,"2013-10-28 10:31:50",12.67
"2013-10-30 00:00:00",1182,2.582,-7.122,6.913,"2013-10-29 08:31:05",0.466,0.053,3.556,9.07,"2013-10-29 08:31:05",12.6
"2013-10-31 00:00:00",1183,4.948,-4.762,7.805,"2013-10-30 13:12:05",0.48,0.096,0.762,9.39,"2013-10-30 13:33:35",12.6
"2013-11-01 00:00:00",1184,6.435,-6.248,11.15,"2013-10-31 14:26:05",0.502,0.167,0.254,13.22,"2013-10-31 13:59:25",12.61
"2013-11-02 00:00:00",1185,8.31,-7.794,8.7,"2013-11-01 10:54:05",0.433,0.229,0,10.51,"2013-11-01 10:53:25",12.58
"2013-11-03 00:00:00",1186,10.74,-11.44,5.661,"2013-11-02 14:57:05",0.401,0.247,0.254,6.993,"2013-11-02 14:37:20",12.52
"2013-11-04 00:00:00",1187,2.123,-11.78,10.14,"2013-11-03 16:11:05",0.327,0.164,0,12.75,"2013-11-03 13:41:20",12.57
"2013-11-05 00:00:00",1188,0.095,-13.05,7.113,"2013-11-04 13:59:05",0.242,0.141,0,8.11,"2013-11-04 14:23:15",12.51
"2013-11-06 00:00:00",1189,0.769,-16.84,7.179,"2013-11-05 15:15:05",0.205,0.16,0,9.23,"2013-11-05 15:30:00",12.46
"2013-11-07 00:00:00",1190,6.435,-12.11,10.93,"2013-11-06 12:39:05",0.339,0.222,0,14.02,"2013-11-06 14:59:00",12.55
"2013-11-08 00:00:00",1191,10.14,-7.794,6.78,"2013-11-07 14:44:05",0.437,0.255,0,8.11,"2013-11-07 14:43:50",12.56
"2013-11-09 00:00:00",1192,10.81,-3.747,11.89,"2013-11-08 12:46:05",0.443,0.347,0,14.18,"2013-11-08 12:45:45",12.59
"2013-11-10 00:00:00",1193,12.3,-7.321,7.445,"2013-11-09 15:00:05",0.437,0.287,0,9.07,"2013-11-09 15:03:05",12.56
"2013-11-11 00:00:00",1194,12.36,-11.71,4.05,"2013-11-10 13:41:05",0.364,0.325,0,5.395,"2013-11-10 12:48:55",12.51
"2013-11-12 00:00:00",1195,16.01,-10.49,5.501,"2013-11-11 15:02:05",0.335,0.383,0,7.153,"2013-11-11 15:01:40",12.52
"2013-11-13 00:00:00",1196,12.36,-11.3,3.89,"2013-11-12 13:26:05",0.35,0.312,0,4.596,"2013-11-12 13:25:30",12.5
"2013-11-14 00:00:00",1197,7.854,-9.68,4.835,"2013-11-13 18:36:05",0.409,0.214,0,6.034,"2013-11-13 18:52:00",12.54
"2013-11-15 00:00:00",1198,8.65,-9.75,7.565,"2013-11-14 11:50:05",0.357,0.247,0.254,9.07,"2013-11-14 11:50:00",12.53
"2013-11-16 00:00:00",1199,3.407,-9.82,6.447,"2013-11-15 18:08:05",0.397,0.102,0.508,8.27,"2013-11-15 16:08:30",12.57
"2013-11-17 00:00:00",1200,1.515,-9.61,10.49,"2013-11-16 13:39:05",0.391,0.099,0,14.18,"2013-11-16 12:52:00",12.58
"2013-11-18 00:00:00",1201,3.259,-11.11,9.9,"2013-11-17 14:40:05",0.313,0.153,0.254,12.91,"2013-11-17 14:39:20",12.54
"2013-11-19 00:00:00",1202,8.78,-13.53,4.756,"2013-11-18 13:18:05",0.333,0.189,0,6.673,"2013-11-18 13:13:10",12.49
"2013-11-20 00:00:00",1203,5.218,-11.3,7.286,"2013-11-19 14:14:05",0.453,0.108,0,9.07,"2013-11-19 14:53:05",12.54
"2013-11-21 00:00:00",1204,8.58,-5.71,7.845,"2013-11-20 14:24:05",0.515,0.179,0,10.67,"2013-11-20 14:22:55",12.6
"2013-11-22 00:00:00",1205,-5.574,-18.53,8.3,"2013-11-21 03:06:05",0.233,0.096,0,10.99,"2013-11-21 02:54:00",12.55
"2013-11-23 00:00:00",1206,-1.109,-23.06,3.823,"2013-11-22 03:28:05",0.156,0.079,0,4.276,"2013-11-22 03:28:05",12.4
"2013-11-24 00:00:00",1207,6.637,-19.61,5.421,"2013-11-23 12:07:05",0.184,0.218,0,7.632,"2013-11-23 11:56:00",12.45
"2013-11-25 00:00:00",1208,2.92,-15.49,4.05,"2013-11-24 14:41:05",0.235,0.156,0,4.756,"2013-11-24 13:24:40",12.5
"2013-11-26 00:00:00",1209,3.934,-16.1,3.424,"2013-11-25 14:05:05",0.258,0.152,0,4.436,"2013-11-25 14:10:35",12.47
"2013-11-27 00:00:00",1210,6.021,-16.03,4.156,"2013-11-26 15:18:05",0.278,0.166,0,4.756,"2013-11-26 15:12:45",12.47
"2013-11-28 00:00:00",1211,7.91,-15.02,3.557,"2013-11-27 14:54:05",0.278,0.162,0,4.276,"2013-11-27 15:03:05",12.48
"2013-11-29 00:00:00",1212,10.2,-13.26,2.958,"2013-11-28 15:16:05",0.285,0.203,0,3.957,"2013-11-28 14:56:05",12.49
"2013-11-30 00:00:00",1213,6.894,-14.75,5.408,"2013-11-29 14:22:05",0.305,0.161,0,6.513,"2013-11-29 14:48:00",12.49
"2013-12-01 00:00:00",1214,6.435,-15.9,5.408,"2013-11-30 13:37:05",0.341,0.142,0,6.673,"2013-11-30 13:37:00",12.47
"2013-12-02 00:00:00",1215,4.677,-6.046,11.64,"2013-12-01 15:23:05",0.483,0.142,0,14.5,"2013-12-01 15:15:55",12.58
"2013-12-03 00:00:00",1216,6.232,-1.258,10.8,"2013-12-02 14:07:05",0.515,0.204,0,13.54,"2013-12-02 13:14:00",12.65
"2013-12-04 00:00:00",1217,0.162,-16.91,7.898,"2013-12-03 03:05:05",0.299,0.056,0,9.23,"2013-12-03 03:01:35",12.58
"2013-12-05 00:00:00",1218,-14.08,-32.47,5.142,"2013-12-04 01:23:05",0.092,0.038,0,6.833,"2013-12-04 00:15:20",12.43
"2013-12-06 00:00:00",1219,-11.29,-33.08,2.398,"2013-12-05 07:33:05",0.066,0.029,0,2.838,"2013-12-05 07:17:45",12.4
"2013-12-07 00:00:00",1220,-8.53,-32.2,2.545,"2013-12-06 13:14:05",0.075,0.032,0,3.158,"2013-12-06 12:59:40",12.38
"2013-12-08 00:00:00",1221,-9.32,-30.1,4.729,"2013-12-07 06:58:05",0.111,0.034,0,5.075,"2013-12-07 06:57:10",12.36
"2013-12-09 00:00:00",1222,-11.91,-27.4,7.645,"2013-12-08 13:08:05",0.099,0.044,0,9.55,"2013-12-08 12:43:30",12.36
"2013-12-10 00:00:00",1223,-12.59,-32.2,9.54,"2013-12-09 14:17:05",0.095,0.042,0,12.27,"2013-12-09 14:23:35",12.34
"2013-12-11 00:00:00",1224,-4.005,-22.79,7.832,"2013-12-10 10:09:05",0.156,0.073,0,9.87,"2013-12-10 11:44:35",12.52
"2013-12-12 00:00:00",1225,-4.694,-27.32,3.344,"2013-12-11 12:35:05",0.141,0.051,0,4.276,"2013-12-11 12:30:50",12.37
"2013-12-13 00:00:00",1226,-2.948,-23.19,3.957,"2013-12-12 14:55:05",0.169,0.063,0,4.436,"2013-12-12 13:47:00",12.43
"2013-12-14 00:00:00",1227,-1.722,-22.25,7.765,"2013-12-13 17:25:05",0.186,0.068,0,8.75,"2013-12-13 17:21:50",12.45
"2013-12-15 00:00:00",1228,0.906,-20.29,9.48,"2013-12-14 21:27:05",0.276,0.088,0,11.63,"2013-12-14 20:53:40",12.45
"2013-12-16 00:00:00",1229,2.582,-11.85,7.246,"2013-12-15 14:04:05",0.313,0.114,0.254,8.59,"2013-12-15 14:43:05",12.54
"2013-12-17 00:00:00",1230,5.488,-13.6,6.54,"2013-12-16 14:58:05",0.293,0.177,0.254,8.27,"2013-12-16 14:39:30",12.52
"2013-12-18 00:00:00",1231,9.4,-16.57,3.078,"2013-12-17 12:02:05",0.245,0.205,0,4.116,"2013-12-17 12:13:50",12.47
"2013-12-19 00:00:00",1232,7.507,-14.48,5.768,"2013-12-18 14:11:05",0.309,0.194,0,6.833,"2013-12-18 14:02:30",12.5
"2013-12-20 00:00:00",1233,1.312,-9.55,6.873,"2013-12-19 17:41:05",0.412,0.045,2.032,8.75,"2013-12-19 18:37:25",12.61
"2013-12-21 00:00:00",1234,-8.35,-14.01,5.914,"2013-12-20 22:58:05",0.244,0.038,0,6.993,"2013-12-20 22:57:35",12.54
"2013-12-22 00:00:00",1235,-2.136,-21.17,4.969,"2013-12-21 00:49:05",0.193,0.059,0,5.874,"2013-12-21 00:46:50",12.48
"2013-12-23 00:00:00",1236,0.04,-22.19,8.35,"2013-12-22 14:03:05",0.237,0.046,0,10.35,"2013-12-22 14:09:10",12.46
"2013-12-24 00:00:00",1237,1.782,-13.67,10.02,"2013-12-23 23:52:05",0.455,0.065,2.032,12.27,"2013-12-23 14:11:05",12.59
"2013-12-25 00:00:00",1238,0.298,-16.3,11.71,"2013-12-24 07:32:05",0.326,0.118,0,14.66,"2013-12-24 06:13:25",12.61
"2013-12-26 00:00:00",1239,2.461,-18.87,5.115,"2013-12-25 09:41:05",0.188,0.088,0,5.874,"2013-12-25 09:40:30",12.46
"2013-12-27 00:00:00",1240,0.974,-20.35,4.196,"2013-12-26 12:39:05",0.189,0.103,0,4.756,"2013-12-26 12:02:35",12.45
"2013-12-28 00:00:00",1241,7.736,-17.58,3.624,"2013-12-27 13:01:05",0.219,0.14,0,4.436,"2013-12-27 13:00:55",12.46
"2013-12-29 00:00:00",1242,4.494,-17.72,4.729,"2013-12-28 18:56:05",0.244,0.093,0,6.194,"2013-12-28 18:51:00",12.46
"2013-12-30 00:00:00",1243,-4.626,-15.16,6.62,"2013-12-29 16:31:05",0.243,0.054,0,8.27,"2013-12-29 14:43:20",12.54
"2013-12-31 00:00:00",1244,-1.122,-15.15,6.726,"2013-12-30 14:12:05",0.24,0.096,0,8.27,"2013-12-30 14:12:00",12.49
"2014-01-01 00:00:00",1245,7.059,-13.2,9.74,"2013-12-31 18:20:05",0.358,0.115,0.254,11.63,"2013-12-31 18:20:15",12.52
"2014-01-02 00:00:00",1246,1.988,-16.37,6.939,"2014-01-01 04:38:05",0.276,0.12,0,7.952,"2014-01-01 04:37:35",12.54
"2014-01-03 00:00:00",1247,3.671,-19.68,3.091,"2014-01-02 13:57:05",0.213,0.092,0,3.637,"2014-01-02 13:56:35",12.45
"2014-01-04 00:00:00",1248,2.863,-19,10.79,"2014-01-03 16:39:05",0.288,0.115,0,14.02,"2014-01-03 16:38:20",12.41
"2014-01-05 00:00:00",1249,-1.773,-19,5.887,"2014-01-04 12:18:05",0.192,0.077,0,6.673,"2014-01-04 12:17:25",12.5
"2014-01-06 00:00:00",1250,-6.441,-21.71,9.3,"2014-01-05 14:21:05",0.129,0.069,0,11.15,"2014-01-05 14:20:25",12.45
"2014-01-07 00:00:00",1251,-2.069,-22.79,6.527,"2014-01-06 12:04:05",0.177,0.086,0,7.952,"2014-01-06 12:06:05",12.46
"2014-01-08 00:00:00",1252,-2.855,-17.18,2.878,"2014-01-07 08:50:05",0.225,0.059,0,2.998,"2014-01-07 08:47:30",12.48
"2014-01-09 00:00:00",1253,-0.987,-18.94,4.782,"2014-01-08 16:09:05",0.269,0.041,0,5.874,"2014-01-08 16:08:20",12.45
"2014-01-10 00:00:00",1254,-0.176,-12.59,8.92,"2014-01-09 15:31:05",0.348,0.062,0,11.15,"2014-01-09 15:52:10",12.57
"2014-01-11 00:00:00",1255,0.095,-15.08,8.8,"2014-01-10 16:57:05",0.316,0.091,0,10.35,"2014-01-10 14:18:15",12.55
"2014-01-12 00:00:00",1256,5.757,-10.03,14.52,"2014-01-11 22:13:05",0.476,0.146,0,19.46,"2014-01-11 22:12:45",12.58
"2014-01-13 00:00:00",1257,-1.055,-10.16,12.19,"2014-01-12 12:36:05",0.323,0.1,0,16.58,"2014-01-12 14:04:25",12.58
"2014-01-14 00:00:00",1258,1.582,-8.74,11.27,"2014-01-13 12:17:05",0.37,0.089,0,14.02,"2014-01-13 11:55:55",12.53
"2014-01-15 00:00:00",1259,2.785,-10.84,8.59,"2014-01-14 12:27:05",0.326,0.12,0,9.71,"2014-01-14 12:20:15",12.54
"2014-01-16 00:00:00",1260,2.852,-11.11,7.925,"2014-01-15 13:20:05",0.3,0.133,0,9.87,"2014-01-15 14:03:25",12.53
"2014-01-17 00:00:00",1261,5.353,-12.86,8.23,"2014-01-16 15:04:05",0.275,0.159,0,9.23,"2014-01-16 15:07:55",12.51
"2014-01-18 00:00:00",1262,4.069,-14.07,5.967,"2014-01-17 17:51:05",0.255,0.17,0,7.312,"2014-01-17 17:14:20",12.5
"2014-01-19 00:00:00",1263,6.235,-17.79,3.81,"2014-01-18 08:32:05",0.24,0.147,0,4.436,"2014-01-18 08:29:00",12.47
"2014-01-20 00:00:00",1264,4.069,-18.12,4.889,"2014-01-19 14:19:05",0.233,0.15,0,5.714,"2014-01-19 14:18:05",12.46
"2014-01-21 00:00:00",1265,5.897,-17.45,3.53,"2014-01-20 09:02:05",0.218,0.166,0,4.276,"2014-01-20 15:49:35",12.47
"2014-01-22 00:00:00",1266,3.258,-22.31,4.343,"2014-01-21 11:38:05",0.195,0.131,0,4.915,"2014-01-21 11:18:30",12.41
"2014-01-23 00:00:00",1267,3.528,-19,6.886,"2014-01-22 22:11:05",0.241,0.158,0,9.07,"2014-01-22 23:31:35",12.45
"2014-01-24 00:00:00",1268,0.365,-19.14,7.192,"2014-01-23 00:42:05",0.212,0.133,0,9.39,"2014-01-23 00:52:10",12.51
"2014-01-25 00:00:00",1269,3.866,-21.37,5.661,"2014-01-24 12:02:05",0.197,0.155,0,6.673,"2014-01-24 11:51:50",12.43
"2014-01-26 00:00:00",1270,5.752,-14.48,5.075,"2014-01-25 14:29:05",0.259,0.199,0,5.714,"2014-01-25 14:28:35",12.5
"2014-01-27 00:00:00",1271,6.773,-17.38,8.31,"2014-01-26 15:50:05",0.28,0.189,4.826,9.87,"2014-01-26 15:49:30",12.48
"2014-01-28 00:00:00",1272,0.703,-20.62,6.047,"2014-01-27 15:11:05",0.247,0.106,0,7.632,"2014-01-27 15:09:45",12.53
"2014-01-29 00:00:00",1273,-0.92,-26.31,8.14,"2014-01-28 16:11:05",0.139,0.131,0,9.71,"2014-01-28 16:10:55",12.4
"2014-01-30 00:00:00",1274,2.927,-14.48,10.75,"2014-01-29 19:59:05",0.401,0.095,1.016,12.91,"2014-01-29 19:58:10",12.51
"2014-01-31 00:00:00",1275,0.433,-11.24,9.03,"2014-01-30 00:59:05",0.41,0.088,0,11.31,"2014-01-30 00:59:35",12.61
"2014-02-01 00:00:00",1276,-0.379,-16.57,5.541,"2014-01-31 14:34:05",0.219,0.083,0.254,6.194,"2014-01-31 14:33:30",12.42
"2014-02-02 00:00:00",1277,-1.596,-19.54,9.02,"2014-02-01 14:33:05",0.183,0.084,0,10.99,"2014-02-01 16:01:05",12.45
"2014-02-03 00:00:00",1278,-3.827,-22.79,4.955,"2014-02-02 14:51:05",0.173,0.084,0,5.874,"2014-02-02 14:25:20",12.42
"2014-02-04 00:00:00",1279,-1.258,-18.94,5.222,"2014-02-03 13:49:05",0.225,0.102,0,5.874,"2014-02-03 13:48:25",12.5
"2014-02-05 00:00:00",1280,-6.712,-21.03,6.713,"2014-02-04 14:44:05",0.172,0.041,0,8.59,"2014-02-04 16:10:20",12.53
"2014-02-06 00:00:00",1281,-14.62,-23.33,3.677,"2014-02-05 14:23:05",0.099,0.038,0,4.596,"2014-02-05 00:30:05",12.47
"2014-02-07 00:00:00",1282,-4.887,-23.87,2.691,"2014-02-06 01:47:05",0.099,0.066,0,3.637,"2014-02-06 01:53:45",12.47
"2014-02-08 00:00:00",1283,-6.306,-24.82,3.703,"2014-02-07 14:23:05",0.185,0.038,0,4.116,"2014-02-07 14:22:10",12.49
"2014-02-09 00:00:00",1284,0.432,-13,12.44,"2014-02-08 13:49:05",0.478,0.038,2.794,16.74,"2014-02-08 13:49:00",12.61
"2014-02-10 00:00:00",1285,2.113,-11.1,9.42,"2014-02-09 03:49:05",0.473,0.08,2.286,11.95,"2014-02-09 03:47:55",12.65
"2014-02-11 00:00:00",1286,6.856,-14.75,5.754,"2014-02-10 17:21:05",0.322,0.112,0.762,8.11,"2014-02-10 16:59:40",12.51
"2014-02-12 00:00:00",1287,1.04,-16.57,10.57,"2014-02-11 13:14:05",0.319,0.072,0,13.07,"2014-02-11 12:38:50",12.5
"2014-02-13 00:00:00",1288,2.988,-13.4,9.83,"2014-02-12 14:18:05",0.42,0.084,0.508,11.47,"2014-02-12 13:08:45",12.52
"2014-02-14 00:00:00",1289,4.948,-5.032,11.35,"2014-02-13 15:24:05",0.535,0.108,0.254,13.22,"2014-02-13 14:36:40",12.61
"2014-02-15 00:00:00",1290,2.853,-5.911,8.3,"2014-02-14 21:28:05",0.482,0.116,0,9.87,"2014-02-14 20:43:05",12.59
"2014-02-16 00:00:00",1291,9.66,-2.272,9.51,"2014-02-15 02:42:05",0.613,0.144,1.016,12.27,"2014-02-15 02:44:00",12.66
"2014-02-17 00:00:00",1292,8.18,-5.303,12.73,"2014-02-16 16:20:05",0.446,0.177,0,15.46,"2014-02-16 17:13:25",12.61
"2014-02-18 00:00:00",1293,7.233,-9.61,8.32,"2014-02-17 15:48:05",0.329,0.242,0,10.67,"2014-02-17 15:55:50",12.55
"2014-02-19 00:00:00",1294,3.866,-5.841,9.78,"2014-02-18 13:25:05",0.338,0.258,0,11.95,"2014-02-18 14:45:25",12.62
"2014-02-20 00:00:00",1295,5.151,-9.49,13.97,"2014-02-19 11:43:05",0.335,0.149,0,16.9,"2014-02-19 11:47:00",12.58
"2014-02-21 00:00:00",1296,-2.539,-16.31,10.16,"2014-02-20 15:07:05",0.231,0.131,0,13.07,"2014-02-20 15:06:15",12.54
"2014-02-22 00:00:00",1297,1.851,-7.05,14.2,"2014-02-21 14:47:05",0.31,0.193,0,18.18,"2014-02-21 15:00:50",12.59
"2014-02-23 00:00:00",1298,1.174,-7.388,13.07,"2014-02-22 14:27:05",0.355,0.14,0,16.26,"2014-02-22 14:17:45",12.59
"2014-02-24 00:00:00",1299,6.367,-5.707,10.46,"2014-02-23 15:12:05",0.379,0.256,0,14.18,"2014-02-23 12:20:20",12.6
"2014-02-25 00:00:00",1300,9.39,-4.356,10.35,"2014-02-24 10:54:05",0.387,0.346,0,13.54,"2014-02-24 11:23:20",12.55
"2014-02-26 00:00:00",1301,10.07,-14.21,9.63,"2014-02-25 11:51:05",0.392,0.21,0,12.11,"2014-02-25 11:50:15",12.56
"2014-02-27 00:00:00",1302,6.164,-14.75,3.664,"2014-02-26 14:14:05",0.301,0.141,0,4.915,"2014-02-26 12:58:05",12.43
"2014-02-28 00:00:00",1303,5.894,-9.96,7.086,"2014-02-28 00:00:05",0.46,0.101,0,9.07,"2014-02-27 23:59:40",12.48
"2014-03-01 00:00:00",1304,7.907,-2.339,10.11,"2014-02-28 12:03:05",0.496,0.194,0,12.43,"2014-02-28 11:56:15",12.57
"2014-03-02 00:00:00",1305,2.852,-6.725,9.44,"2014-03-01 12:13:05",0.542,0.081,11.68,11.31,"2014-03-01 12:12:35",12.58
"2014-03-03 00:00:00",1306,5.707,-4.018,7.419,"2014-03-02 16:19:05",0.504,0.142,0.254,9.39,"2014-03-02 16:18:25",12.58
"2014-03-04 00:00:00",1307,7.443,-1.258,10,"2014-03-03 13:40:05",0.533,0.189,0,12.11,"2014-03-03 13:40:00",12.59
"2014-03-05 00:00:00",1308,5.759,-3.882,7.792,"2014-03-04 17:36:05",0.551,0.131,0.254,9.39,"2014-03-04 17:12:50",12.6
"2014-03-06 00:00:00",1309,7.432,-6.171,7.246,"2014-03-05 14:47:05",0.481,0.19,0.254,9.07,"2014-03-05 12:10:00",12.54
"2014-03-07 00:00:00",1310,7.447,-4.153,10.53,"2014-03-06 13:26:05",0.547,0.151,0.254,14.02,"2014-03-06 13:25:50",12.56
"2014-03-08 00:00:00",1311,8.25,-4.018,9.02,"2014-03-07 16:21:05",0.448,0.227,0,10.51,"2014-03-07 16:20:55",12.57
"2014-03-09 00:00:00",1312,8.72,-6.509,5.741,"2014-03-08 11:08:05",0.415,0.264,0,7.312,"2014-03-08 11:08:10",12.57
"2014-03-10 00:00:00",1313,11.69,-5.832,10.3,"2014-03-09 12:56:05",0.378,0.412,0,13.54,"2014-03-09 14:01:00",12.53
"2014-03-11 00:00:00",1314,14.59,-2.127,13.24,"2014-03-10 16:12:05",0.436,0.446,0,16.26,"2014-03-10 16:05:55",12.57
"2014-03-12 00:00:00",1315,1.782,-9.41,8.68,"2014-03-11 02:18:05",0.369,0.141,0.762,10.03,"2014-03-11 00:42:15",12.41
"2014-03-13 00:00:00",1316,8.18,-12.44,6.54,"2014-03-12 14:16:05",0.306,0.237,0,8.27,"2014-03-12 14:02:00",12.42
"2014-03-14 00:00:00",1317,11.22,-9.07,9.31,"2014-03-13 14:59:05",0.305,0.347,0,11.95,"2014-03-13 13:07:30",12.44
"2014-03-15 00:00:00",1318,9.8,-10.56,9.52,"2014-03-14 14:41:05",0.337,0.355,0,12.43,"2014-03-14 14:45:25",12.46
"2014-03-16 00:00:00",1319,7.448,-4.356,13.84,"2014-03-15 10:03:05",0.301,0.366,0,16.1,"2014-03-15 08:24:05",12.54
"2014-03-17 00:00:00",1320,12.16,-9.55,11.05,"2014-03-16 14:33:05",0.321,0.447,0,13.38,"2014-03-16 14:34:00",12.5
"2014-03-18 00:00:00",1321,8.73,-4.221,14.98,"2014-03-17 11:13:05",0.327,0.308,0,18.5,"2014-03-17 10:19:50",12.61
"2014-03-19 00:00:00",1322,2.047,-12.33,8.94,"2014-03-18 02:02:05",0.34,0.151,0,10.51,"2014-03-18 02:00:40",12.61
"2014-03-20 00:00:00",1323,5.624,-19.14,9.28,"2014-03-19 16:13:05",0.237,0.251,1.27,12.43,"2014-03-19 14:56:45",12.45
"2014-03-21 00:00:00",1324,10.27,-8.67,13.11,"2014-03-20 14:46:05",0.235,0.479,0,16.9,"2014-03-20 15:25:00",12.54
"2014-03-22 00:00:00",1325,7.381,-13.93,6.114,"2014-03-21 15:07:05",0.224,0.343,0,7.312,"2014-03-21 14:43:30",12.48
"2014-03-23 00:00:00",1326,8.53,-11.91,7.166,"2014-03-22 14:43:05",0.272,0.315,0,8.91,"2014-03-22 12:19:35",12.58
"2014-03-24 00:00:00",1327,8.46,-14.2,11.16,"2014-03-23 12:18:05",0.206,0.406,0,13.7,"2014-03-23 12:17:45",12.47
"2014-03-25 00:00:00",1328,10.95,-11.37,9.78,"2014-03-24 14:44:05",0.226,0.457,0,11.79,"2014-03-24 15:42:30",12.5
"2014-03-26 00:00:00",1329,15.14,-10.56,8.38,"2014-03-25 14:38:05",0.245,0.591,0,10.19,"2014-03-25 13:59:45",12.51
"2014-03-27 00:00:00",1330,7.786,-4.829,8.64,"2014-03-26 03:23:05",0.413,0.261,0.762,11.15,"2014-03-26 03:22:10",12.6
"2014-03-28 00:00:00",1331,3.807,-7.456,12.15,"2014-03-27 13:08:05",0.43,0.109,1.27,14.18,"2014-03-27 13:07:40",12.57
"2014-03-29 00:00:00",1332,7.177,-8.81,9.8,"2014-03-28 12:48:05",0.339,0.259,0,11.95,"2014-03-28 12:47:05",12.55
"2014-03-30 00:00:00",1333,12.57,-8.67,10.34,"2014-03-29 14:38:05",0.364,0.42,0,15.3,"2014-03-29 12:02:40",12.53
"2014-03-31 00:00:00",1334,9.67,-1.996,11.43,"2014-03-30 15:04:05",0.494,0.259,2.794,13.7,"2014-03-30 15:04:00",12.61
"2014-04-01 00:00:00",1335,7.367,-6.035,7.472,"2014-03-31 12:50:05",0.338,0.337,0,9.07,"2014-03-31 16:15:20",12.56
"2014-04-02 00:00:00",1336,5.759,-7.73,8.03,"2014-04-01 16:16:05",0.499,0.095,1.524,9.87,"2014-04-01 16:02:35",12.57
"2014-04-03 00:00:00",1337,6.773,-11.92,7.073,"2014-04-02 17:04:05",0.341,0.21,1.27,8.75,"2014-04-02 15:20:20",12.52
"2014-04-04 00:00:00",1338,6.225,-10.9,8.83,"2014-04-03 14:34:05",0.327,0.208,0,10.67,"2014-04-03 14:33:25",12.48
"2014-04-05 00:00:00",1339,8.12,-9.41,10.07,"2014-04-04 15:39:05",0.34,0.298,0.254,11.63,"2014-04-04 14:02:00",12.5
"2014-04-06 00:00:00",1340,10.74,-10.36,9.46,"2014-04-05 16:38:05",0.382,0.314,0,13.07,"2014-04-05 16:28:00",12.52
"2014-04-07 00:00:00",1341,9.4,-7.794,11.45,"2014-04-06 15:09:05",0.394,0.265,0.254,14.18,"2014-04-06 15:09:05",12.52
"2014-04-08 00:00:00",1342,12.84,-5.833,10.97,"2014-04-07 16:15:05",0.372,0.487,0,13.07,"2014-04-07 14:41:40",12.56
"2014-04-09 00:00:00",1343,20.39,-6.509,9.14,"2014-04-08 15:26:05",0.406,0.686,0,12.11,"2014-04-08 16:41:20",12.56
"2014-04-10 00:00:00",1344,18.85,-4.956,13.04,"2014-04-09 15:34:05",0.382,0.813,0,16.26,"2014-04-09 13:42:05",12.57
"2014-04-11 00:00:00",1345,15.68,-3.341,11.16,"2014-04-10 13:22:05",0.391,0.677,0,13.86,"2014-04-10 13:21:25",12.6
"2014-04-12 00:00:00",1346,18.78,-9.14,12.47,"2014-04-11 14:00:05",0.4,0.756,0,15.62,"2014-04-11 14:31:45",12.52
"2014-04-13 00:00:00",1347,17.77,-5.231,11.61,"2014-04-12 13:38:05",0.375,0.736,0,15.94,"2014-04-12 13:37:30",12.57
"2014-04-14 00:00:00",1348,1.515,-7.659,9.43,"2014-04-13 11:13:05",0.353,0.118,0,13.86,"2014-04-13 14:21:15",12.59
"2014-04-15 00:00:00",1349,8.59,-15.14,8.19,"2014-04-14 16:02:05",0.233,0.331,0.508,10.51,"2014-04-14 17:42:00",12.47
"2014-04-16 00:00:00",1350,15.34,-7.388,14.13,"2014-04-15 16:29:05",0.302,0.577,0,16.74,"2014-04-15 15:20:50",12.53
"2014-04-17 00:00:00",1351,10.75,-10.29,7.592,"2014-04-16 11:54:05",0.256,0.465,0,8.91,"2014-04-16 15:44:40",12.54
"2014-04-18 00:00:00",1352,16.28,-11.5,9.24,"2014-04-17 13:42:05",0.298,0.636,0,14.98,"2014-04-17 13:23:05",12.49
"2014-04-19 00:00:00",1353,19.26,-2.327,14.62,"2014-04-18 12:25:05",0.461,0.692,0,18.18,"2014-04-18 10:49:40",12.58
"2014-04-20 00:00:00",1354,17.3,-6.509,8.6,"2014-04-19 13:41:05",0.412,0.696,0,10.67,"2014-04-19 14:33:50",12.54
"2014-04-21 00:00:00",1355,18.99,-5.697,12.67,"2014-04-20 13:09:05",0.358,0.796,0,15.46,"2014-04-20 13:08:15",12.54
"2014-04-22 00:00:00",1356,20.41,-10.36,6.78,"2014-04-21 14:44:05",0.266,0.935,0,9.07,"2014-04-21 14:43:00",12.5
"2014-04-23 00:00:00",1357,20.81,-0.108,14.32,"2014-04-22 19:18:05",0.517,0.843,0.762,18.98,"2014-04-22 19:18:00",12.62
"2014-04-24 00:00:00",1358,7.313,-3.477,12.01,"2014-04-23 13:35:05",0.338,0.377,0,14.66,"2014-04-23 11:09:40",12.58
"2014-04-25 00:00:00",1359,13.58,-9.34,12.33,"2014-04-24 15:11:05",0.328,0.515,0,14.5,"2014-04-24 15:10:45",12.53
"2014-04-26 00:00:00",1360,16.62,-6.172,11.05,"2014-04-25 21:38:05",0.436,0.678,0,12.75,"2014-04-25 21:39:30",12.56
"2014-04-27 00:00:00",1361,14.39,-0.176,13.28,"2014-04-26 14:34:05",0.623,0.302,2.794,15.3,"2014-04-26 14:35:30",12.59
"2014-04-28 00:00:00",1362,8.46,-5.641,10.34,"2014-04-27 15:01:05",0.38,0.368,0,14.02,"2014-04-27 15:00:20",12.58
"2014-04-29 00:00:00",1363,6.975,-8.67,13.72,"2014-04-28 16:06:05",0.262,0.38,0,17.06,"2014-04-28 10:45:40",12.52
"2014-04-30 00:00:00",1364,10.41,-10.96,7.632,"2014-04-29 18:12:05",0.267,0.422,0,8.91,"2014-04-29 18:11:30",12.49